Regional Weather Roundup
Issued by NWS

Home | Current Version | Previous Version | Text Only | Print | Product List | Glossary On
Versions: 1 2 3 4 5 6 7 8 9 10 11 12 13 14 15 16 17 18 19 20 21 22 23 24 25 26 27 28 29 30 31 32 33 34 35 36 37 38 39 40 41 42 43 44 45 46 47 48 49 50
000
ASUS43 KOAX 250010
RWRNE

WEATHER ROUNDUP FOR NEBRASKA
NATIONAL WEATHER SERVICE OMAHA NE
700 PM CDT SAT SEP 24 2016

NOTES: SATELLITE DATA IS BEING USED TO AUGMENT CLOUD COVER ABOVE
       12000 FEET.
       "FAIR" INDICATES FEW OR NO CLOUDS BELOW 12,000 FEET WITH NO
       SIGNIFICANT WEATHER AND/OR OBSTRUCTIONS TO VISIBILITY.

  * THESE STATIONS DO NOT REPORT WEATHER SUCH AS RAIN...SNOW OR FOG.

NEZ001>004-019>022-054>056-250100-
NEBRASKA PANHANDLE

CITY           SKY/WX    TMP DP  RH WIND       PRES   REMARKS
SCOTTSBLUFF    CLEAR     60  42  51 NW20G26   30.08R
6HR MIN TEMP:  59; 6HR MAX TEMP:  71;

ALLIANCE       CLEAR     61  41  47 NW20G28   30.04R
6HR MIN TEMP:  61; 6HR MAX TEMP:  70;

CHADRON        CLEAR     56  41  57 W18G26    30.04R
6HR MIN TEMP:  56; 6HR MAX TEMP:  69;

KIMBALL        CLOUDY    60  39  45 NW22G30   30.10R
SIDNEY         LGT RAIN  64  37  36 N21       30.06R
6HR MIN TEMP:  64; 6HR MAX TEMP:  73; 6HR PCP: TRACE;

$$

NEZ057>060-069>072-079>082-250100-
SOUTHWEST NEBRASKA

CITY           SKY/WX    TMP DP  RH WIND       PRES   REMARKS
NORTH PLATTE   CLEAR     75  45  34 NW5       29.96R
6HR MIN TEMP:  75; 6HR MAX TEMP:  81;

IMPERIAL       CLEAR     74  31  20 CALM      29.98R
6HR MIN TEMP:  69; 6HR MAX TEMP:  75;

LEXINGTON      CLOUDY    73  44  34 W3        29.92S
MCCOOK         CLEAR     74  42  31 S5        29.95R
6HR MIN TEMP:  73; 6HR MAX TEMP:  79;

OGALLALA       CLEAR     73  32  22 W6        29.99R
$$

NEZ005>010-023>029-035>040-094-250100-
NORTH CENTRAL NEBRASKA

CITY           SKY/WX    TMP DP  RH WIND       PRES   REMARKS
VALENTINE      CLEAR     72  35  25 W13       29.92R
6HR MIN TEMP:  69; 6HR MAX TEMP:  76;

AINSWORTH      CLEAR     72  40  31 W9        29.94R
BROKEN BOW     CLEAR     75  43  31 CALM      29.93R
6HR MIN TEMP:  66; 6HR MAX TEMP:  79;

O`NEILL        CLEAR     75  42  30 W3        29.90R
ORD            CLEAR     72  48  42 W6        29.90R
6HR MIN TEMP:  68; 6HR MAX TEMP:  81;

THEDFORD       CLEAR     72  40  30 W7        29.97R
$$

NEZ041-046>049-061>064-073>077-083>087-250100-
SOUTH CENTRAL NEBRASKA

CITY           SKY/WX    TMP DP  RH WIND       PRES   REMARKS
GRAND ISLAND   CLOUDY    73  64  73 S7        29.91S
6HR MIN TEMP:  66; 6HR MAX TEMP:  75; 6HR PCP: TRACE;

AURORA         CLOUDY    73  70  92 CALM      29.91S
HASTINGS       PTCLDY    73  64  73 SW5       29.91F
6HR MIN TEMP:  68; 6HR MAX TEMP:  74;

HEBRON         CLOUDY    72  69  92 SE6       29.90S
HOLDREGE       CLEAR     75  47  37 CALM      29.92S
KEARNEY *      CLEAR     75  48  38 CALM      29.90S
YORK           CLOUDY    72  66  83 S7        29.91S
$$

NEZ011>018-030>034-042>045-250100-
NORTHEAST NEBRASKA

CITY           SKY/WX    TMP DP  RH WIND       PRES   REMARKS
NORFOLK        CLOUDY    73  65  75 S7        29.89S
6HR MIN TEMP:  69; 6HR MAX TEMP:  75; 6HR PCP:  0.18;

ALBION         CLOUDY    73  63  72 S9        29.90S
BLAIR          LGT RAIN  72  71  95 S5        29.91R
FREMONT        CLOUDY    71  70  95 S5        29.89F
TEKAMAH        CLOUDY    72  71  97 SE5       29.89S FOG
6HR MIN TEMP:  72; 6HR MAX TEMP:  79; 6HR PCP:  0.09;

WAYNE          CLOUDY    72  70  95 S5        29.90R
$$

NEZ050>053-065>068-078-088>093-250100-
SOUTHEAST NEBRASKA

CITY           SKY/WX    TMP DP  RH WIND       PRES   REMARKS
LINCOLN        CLOUDY    71  69  93 S10       29.90F
6HR MIN TEMP:  71; 6HR MAX TEMP:  75; 6HR PCP:  0.07;

OMAHA EPPLEY   LGT RAIN  72  69  90 S10       29.89S
6HR MIN TEMP:  71; 6HR MAX TEMP:  75; 6HR PCP:  1.13;

BEATRICE       LGT RAIN  68  67  97 SE12      29.91S
FALLS CITY     LGT RAIN  70  70 100 CALM      29.94R
6HR MIN TEMP:  69; 6HR MAX TEMP:  89; 6HR PCP:  1.31;

NEBRASKA CITY  RAIN      70  67  92 S10       29.94R
PLATTSMOUTH    LGT RAIN  70  67  89 SE9       29.91S
$$

NEZ044-045-051>053-067-250100-
OMAHA AREA

CITY           SKY/WX    TMP DP  RH WIND       PRES   REMARKS
OMAHA EPPLEY   LGT RAIN  72  69  90 S10       29.89S
6HR MIN TEMP:  71; 6HR MAX TEMP:  75; 6HR PCP:  1.13;

BLAIR          LGT RAIN  72  71  95 S5        29.91R
FREMONT        CLOUDY    71  70  95 S5        29.89F
MILLARD        LGT RAIN  72  70  92 SE5       29.89S
OFFUTT AFB     TSTM      71  71 100 S14       29.89S
PLATTSMOUTH    LGT RAIN  70  67  89 SE9       29.91S
WAHOO          MOCLDY    71  69  95 SW5       29.90S
$$




USA.gov is the U.S. government's official web portal to all federal, state and local government web resources and services.